Вернуться в каталог

THORAD AGENA D DEB

АктивенSSO
NORAD 42543·DEBRIS·🇺🇸 United States

Запущен Apr 8, 1970 с Vandenberg Space Force Base

Loading…

Ближайшие Пролёты (ближайшие 24 часа)

TLE

СвежийSource: Space-Track

Эпоха: Sep 12, 2026, 05:45 UTC

1 42543U 70025SZ  26255.24022655  .00000356  00000-0  79876-3 0  9992
2 42543  99.7819 263.8957 0180812 135.4637 226.1179 13.28147123619749

Отслеживайте THORAD AGENA D DEB в реальном времени с AllMySat

Download on the App Store